IRIDIUM 167

Last updated on Tue Sep 22 2026 00:03:21 GMT+0000 (Coordinated Universal Time)

1 43931U 19002K 26264.43554370 .00000048 00000+0 99508-5 0 9990 2 43931 86.3969 313.3823 0002055 90.1731 269.9700 14.34217434402753
UTC large
Height (km)
Speed (km/s)
/
Latitude / Longitude
Inclination (degrees)
Orbital Period (minutes)
Azimuth
Elevation
Range (km)
Doppler Factor

Next 0 passes for location: London (51.5072 / 0.1276)

No passes found over London.
IRIDIUM 167